Location: Wiesbaden
(50.0830°N, 8.2500°E)
Time: 06:39:51
(UTC+01:00)

ISS - Pass Details

Date: 03 December 2019
Orbit: 411 x 421 km, 51.6° (Epoch: 15 December)

Event Time Altitude Azimuth Distance (km) Brightness Sun altitude
Rises 17:35:05 0° 273° (W) 2,356 1.4 -10.4°
Reaches altitude 10° 17:37:11 10° 277° (W) 1,495 0.1 -10.8°
Maximum altitude 17:40:31 64° 0° (N) 467 -3.7 -11.3°
Enters shadow 17:42:48 19° 79° (E) 1,077 -2.3 -11.6°
